Orbital Elements
Epoch 2012 June 2.0 TT = JDT 2456080.5
T 2012 May 13.52839 TT MPC
q 1.6181653 (2000.0) P Q
n 0.15015039 Peri. 216.38236 -0.55897799 -0.82679142
a 3.5057834 Node 267.68412 +0.77484693 -0.49382328
e 0.5384298 Incl. 3.61067 +0.29522169 -0.26935945
P 6.56
From 353 observations 1971 Sept. 19-2012 May 28, mean residual 0".8.
Nongravitational parameters A1 = -0.03, A2 = -0.0002.
|